Appleton, WI

3:11 AM CDT on April 21, 2018 (GMT -0500)
Outagamie County Regional

Weather History for KATW - October, 2012

Change the Weather History Date:

Wednesday, October 17, 2012

  Actual Average Record
Temperature  
Mean Temperature 56 °F -  
Max Temperature 66 °F 56 °F 80 °F (1956)
Min Temperature 46 °F 38 °F 23 °F (1952)
Degree Days  
Heating Degree Days 9    
Growing Degree Days 6 (Base 50)    
Moisture  
Dew Point 50 °F    
Average Humidity 91    
Maximum Humidity 100    
Minimum Humidity 59    
Precipitation  
Precipitation 0.35 in - - ()
Sea Level Pressure  
Sea Level Pressure 29.38 in    
Wind  
Wind Speed 7 mph (SSE)    
Max Wind Speed 18 mph    
Max Gust Speed 25 mph    
Visibility 8 miles    
Events Rain    
Averages and records for this station are not official NWS values.
T = Trace of Precipitation, MM = Missing Value Source: NWS Daily Summary

Daily Weather History Graph

Daily Weather History Graph

Search for Another Location

Airport or City:

Astronomy

Oct. 17, 2012 Rise Set
Actual Time 7:12 AM CDT 6:05 PM CDT
Civil Twilight 6:42 AM CDT 6:35 PM CDT
Nautical Twilight 6:09 AM CDT 7:08 PM CDT
Astronomical Twilight 5:35 AM CDT 7:42 PM CDT
Moon 9:53 AM CDT (10/17) 7:34 PM CDT (10/17)
Length of Visible Light 11h 52m
Length of Day
10h 53m
Waxing Crescent, 7% of the Moon is Illuminated
Oct 17
Waxing Crescent
Oct 21
First Quarter
Oct 29
Full
Nov 6
Last Quarter
Nov 13
New

Hourly Weather History & Observations

Time (CDT) Temp. Windchill Dew Point Humidity Pressure Visibility Wind Dir Wind Speed Gust Speed Precip Events Conditions
12:15 AM 50.0 °F - 48.2 °F 94% 29.46 in 10.0 mi SE 6.9 mph - N/A   Clear
12:35 AM 50.0 °F - 48.2 °F 94% 29.46 in 10.0 mi SE 6.9 mph - N/A   Clear
12:55 AM 50.0 °F - 48.2 °F 94% 29.46 in 10.0 mi SE 5.8 mph - N/A   Clear
1:15 AM 50.0 °F - 48.2 °F 94% 29.45 in 10.0 mi SE 5.8 mph - N/A   Clear
1:35 AM 50.0 °F - 46.4 °F 87% 29.45 in 10.0 mi SE 6.9 mph - N/A   Clear
1:55 AM 50.0 °F - 48.2 °F 94% 29.44 in 10.0 mi SE 5.8 mph - N/A   Clear
2:15 AM 50.0 °F - 48.2 °F 94% 29.44 in 10.0 mi ESE 4.6 mph - N/A   Clear
2:35 AM 48.2 °F - 46.4 °F 93% 29.44 in 10.0 mi SSE 3.5 mph - N/A   Clear
2:55 AM 50.0 °F - 48.2 °F 94% 29.43 in 10.0 mi SSE 4.6 mph - N/A   Clear
3:15 AM 50.0 °F - 48.2 °F 94% 29.42 in 10.0 mi SSE 4.6 mph - N/A   Clear
3:35 AM 48.2 °F - 48.2 °F 100% 29.42 in 7.0 mi South 4.6 mph - N/A   Clear
3:55 AM 46.4 °F 45.2 °F 46.4 °F 100% 29.42 in 7.0 mi South 3.5 mph - N/A   Clear
4:15 AM 46.4 °F - 46.4 °F 100% 29.42 in 5.0 mi Calm Calm - N/A   Clear
4:35 AM 46.4 °F 45.2 °F 46.4 °F 100% 29.42 in 4.0 mi South 3.5 mph - N/A   Clear
4:55 AM 46.4 °F 44.3 °F 46.4 °F 100% 29.42 in 5.0 mi South 4.6 mph - N/A   Clear
5:15 AM 50.0 °F - 50.0 °F 100% 29.43 in 10.0 mi SSW 9.2 mph - N/A   Clear
6:45 AM 51.8 °F - 48.2 °F 88% 29.42 in 10.0 mi South 5.8 mph - N/A   Partly Cloudy
7:45 AM 48.2 °F - 48.2 °F 100% 29.42 in 10.0 mi SSE 6.9 mph - N/A   Scattered Clouds
8:45 AM 55.4 °F - 51.8 °F 88% 29.41 in 10.0 mi South 9.2 mph - N/A   Mostly Cloudy
10:45 AM 59.0 °F - 48.2 °F 67% 29.40 in 10.0 mi South 10.4 mph - N/A   Mostly Cloudy
11:45 AM 64.4 °F - 51.8 °F 64% 29.38 in 10.0 mi SSE 11.5 mph - N/A   Mostly Cloudy
12:45 PM 64.4 °F - 50.0 °F 59% 29.36 in 10.0 mi South 16.1 mph - N/A   Mostly Cloudy
1:45 PM 64.4 °F - 51.8 °F 64% 29.35 in 10.0 mi South 12.7 mph - N/A   Mostly Cloudy
2:45 PM 66.2 °F - 51.8 °F 60% 29.36 in 10.0 mi SSW 17.3 mph 23.0 mph N/A   Mostly Cloudy
3:45 PM 57.2 °F - 55.4 °F 94% 29.35 in 5.0 mi SSW 18.4 mph 25.3 mph N/A Rain Light Rain
5:45 PM 59.0 °F - 55.4 °F 88% 29.34 in 7.0 mi South 13.8 mph - N/A   Overcast
6:45 PM 57.2 °F - 55.4 °F 94% 29.34 in 7.0 mi South 5.8 mph - N/A Rain Light Rain
7:45 PM 57.2 °F - 55.4 °F 94% 29.31 in 7.0 mi SSE 4.6 mph - N/A Rain Light Rain
8:45 PM 55.4 °F - 55.4 °F 100% 29.30 in 1.5 mi SE 5.8 mph - N/A Rain Rain
9:45 PM 55.4 °F - 55.4 °F 100% 29.28 in 1.5 mi SSE 3.5 mph - N/A Rain Rain
10:45 PM 55.4 °F - 55.4 °F 100% 29.25 in 1.5 mi ESE 9.2 mph - N/A Rain Rain
10:55 PM 53.6 °F - 53.6 °F 100% 29.25 in 2.0 mi ESE 5.8 mph - 0.20 in Rain Rain
11:15 PM 51.8 °F - 51.8 °F 100% 29.24 in 5.0 mi West 12.7 mph - 0.09 in Rain Rain
11:35 PM 51.8 °F - 51.8 °F 100% 29.23 in 7.0 mi WNW 12.7 mph - 0.12 in Rain Light Rain
11:55 PM 51.8 °F - 51.8 °F 100% 29.23 in 7.0 mi WNW 9.2 mph - 0.15 in Rain Rain